Find Starlink 3715

NORAD ID: 52127 Int'l Des: 2022-029 Owner: SPXS Country: US Constellation: starlink operational
LEOCIRCULAR

Live-Position

3D-Globus wird geladen...

Über Starlink 3715

Beschreibung wird geladen...

Nächste Überflüge

Passes for default location (London). Set your location on the main map for personalized predictions.

Höhenverlauf

Loading altitude history...

Zweizeiliger Elementsatz

1 52127U 22029AR 26105.91308270 -.00000376 00000-0 -55353-5 0 9990
2 52127 53.2173 262.0188 0001241 93.2838 266.8296 15.08839980226547
Epoch: 15. Apr. 2026 • Age: 10 hours

Aktueller Status

Höhe 542.6 km
Geschwindigkeit 7.59 km/s
Subsatellitenpunkt -10.06°S, 118.63°E
Startdatum 19. März 2022
Alter 4 years
Typ internet

Technische Details

Klassifizierung Payload
Masse 297.00 kg
Trockenmasse 275.00 kg
Gesamtmasse 297.00 kg
Länge 0.20 m
Durchmesser 2.80 m
Spannweite 9.00 m
Form Box + pan
Hersteller SPXS
Bus-Typ Starlink
Phasenstatus In Orbit
Besitzer/Staat SPXS/US

Most Searched